Home   Weather   Altus   Past weeks
Flag for USA

Past Weather in Altus, Oklahoma, USA — Yesterday and Last 2 Weeks

Now
70 °F

Clear.


Feels Like: 76 °F
Forecast: 77 / 53 °F
Wind: 17 mph from Southeast

Location: Altus Air Force Base

Current Time: Oct 18, 2019 at 9:29:23 pm

Latest Report: Oct 18, 2019 at 8:56 pm


Visibility: 10 mi

Pressure: 29.60 "Hg

Humidity: 30%

Dew Point: 37 °F

Location of AltusLocation

Past Weather in Altus — Graph

°F

Altus Temperature Yesterday

Maximum temperature yesterday: 81 °F (at 3:56 pm)
Minimum temperature yesterday: 39 °F (at 6:56 am)
Average temperature yesterday: 59 °F

High & Low Weather Summary for the Past Weeks

 TemperatureHumidityPressure
High94 °F (Oct 5, 3:56 pm)100% (Oct 5, 7:56 am)30.40 "Hg (Oct 5, 7:56 am)
Low30 °F (Oct 12, 7:56 am)9% (Oct 12, 2:56 pm)29.58 "Hg (Oct 18, 7:56 pm)
Average62 °F51%30.00 "Hg
* Reported Oct 3 7:56 pm — Oct 18 7:56 pm, Altus. Weather by CustomWeather, © 2019

Note: Actual official high and low records may vary slightly from our data, if they occured in-between our weather recording intervals... More about our weather records

Advertising

Altus Weather History for the Previous 24 Hours

Scroll right to see more
 ConditionsComfort  
Time TempWeatherWind HumidityBarometerVisibility
7:56 pm
Fri, Oct 18
73 °FClear.18 mph34%29.58 "Hg10 mi
6:56 pm76 °FSunny.21 mph31%29.59 "Hg10 mi
5:56 pm81 °FSunny.22 mph28%29.58 "Hg10 mi
4:56 pm82 °FSunny.22 mph26%29.58 "Hg10 mi
3:56 pm84 °FPassing clouds.23 mph25%29.59 "Hg10 mi
2:56 pm81 °FPassing clouds.24 mph27%29.61 "Hg10 mi
11:56 am71 °FSunny.16 mph36%29.73 "Hg10 mi
10:56 am64 °FSunny.13 mph42%29.78 "Hg10 mi
9:56 am58 °FSunny.15 mph52%29.80 "Hg10 mi
8:56 am51 °FSunny.12 mph68%29.81 "Hg10 mi
7:56 am47 °FSunny.9 mph78%29.81 "Hg10 mi
6:56 am48 °FClear.9 mph77%29.79 "Hg10 mi
5:56 am48 °FClear.8 mph74%29.80 "Hg10 mi
4:56 am49 °FClear.10 mph69%29.78 "Hg10 mi
3:56 am47 °FClear.10 mph70%29.80 "Hg10 mi
2:56 am48 °FClear.5 mph62%29.81 "Hg10 mi
1:56 am52 °FPassing clouds.12 mph57%29.80 "Hg10 mi
12:56 am53 °FPassing clouds.8 mph52%29.83 "Hg10 mi
11:56 pm
Thu, Oct 17
57 °FPassing clouds.10 mph44%29.83 "Hg10 mi
10:56 pm60 °FClear.13 mph37%29.83 "Hg10 mi
9:56 pm64 °FPassing clouds.15 mph29%29.83 "Hg10 mi
Weather by CustomWeather, © 2019

See weather overview